Погода Одесское

Погода Одесское : погода сейчас, прогноз погоды и архив. Всё, что Вы хотите узнать о погоде Одесское!

Хотите узнать прогноз погоды Одесское? Тогда Вам сюда: Погода Одесское

Поиск расширенной информации на нашем сайте:

Другие новости

Новости СМИ2

Главная страница сайта

Новости сайта

03.07.2017

Напоминаем, что на нашем специализированном сайте Метеоцентр.Азия вы можете получить высокодетализированные автоматические прогнозы погоды по пунктам России, СНГ и мира в авиационном формате (включающие направление и скорость ветра, видимость, явления погоды, количество и форму облачности, нижнюю и верхнюю границу облачности).


Погода Одесское - сегодня

Время (UTC), дата Ветер
(°,м/с) 
Видим.   Явления Облачность Т
(°С)
Тd
(°С)
f(%) Тe
(°С)
Pmin
(гПа)
dP
(гПа)
Po
(мм)
O2
(г/м3)
Тmin Tmax R s Состояние
почвы
03 17.08.17 290 (З) 10 км    10/3 600 м кучево-дожд., средняя, верхняя 
[Cb calv|Ac cast|Ci fib]
+19.4 +11.3 59 +23  1018.6  -0.2  753  281  +15        сухая 
06 17.08.17 340 (С) 10 км    10/3 600 м кучево-дожд., средняя, верхняя 
[Cb calv|Ac cast|Ci sp]
+21.8 +13.5 59 +28  1018.4  0.1  753  278           
12 17.08.17 340 (С) 5{10}  10 км  {ливн. осадки}  8/6 600 м кучево-дожд., средняя, верхняя 
[Cb calv|Ac lent|Ci fib]
+20.6 +13.7 65 +27  1018.2  0.2  753  279           
15 17.08.17 330 (СЗ) 10 км    10/1 600 м кучево-дожд., средняя, верхняя 
[Cb calv|Ac trans|Cc]
+16.9 +13 78 +23  1019.4  1.1  754  283    +24.4     
18 17.08.17 330 (СЗ) 10 км    10/0 верхняя 
[Ci fib]
+12.9 +11.9 94 +17  1019.8  0.1  754  288           
21 17.08.17 320 (СЗ) 4000 м  дымка  10/0 верхняя 
[Ci fib]
+10.8 +10.8 100 +13  1019.8  0.1  754  290           
00 18.08.17 330 (СЗ) 4000 м  дымка  4/1 600 м кучево-дожд., средняя, верхняя 
[Cb calv|Ac cast|Cc]
+9.2 +9.2 100 +9  1020.7  0.8  754  292           
03 18.08.17 020 (С) 10 км    8/4 600 м кучево-дожд., средняя, верхняя 
[Cb calv|Ac cast|Ci fib]
+14.2 +12.4 89 +18  1021  0.6  755  287  +9.1        влажная 
06 18.08.17 340 (С) 10 км    6/4 600 м верхняя 
[Cu med, cong|Ci fib]
+18.6 +10.5 59 +21  1020.9  0.1  755  283           
09 18.08.17 330 (СЗ) 6{12}  10 км    6/5 600 м кучево-дожд., средняя 
[Cb calv|Ac cast]
+19.3 +6.9 44 +19  1020.4  -0.5  754  283           
12 18.08.17 350 (С) 6-10{11}  10 км    8/3 600 м кучево-дожд., средняя, верхняя 
[Cb calv|Ac trans|Ci fib]
+18.6 +7.5 48 +19  1021  0.6  755  283           
15 18.08.17 330 (СЗ) 2{11}  10 км    3/1 600 м верхняя 
[Sc diur, vesp|Ci sp]
+13.1 +7.8 70 +14  1022.4  1.1  756  289    +20.7       
18 18.08.17 310 (СЗ) 10 км    ясно 
+8.9 +8.9 100 +10  1023.1  0.4  756  293           
21 18.08.17 330 (СЗ) 4000 м  дымка  ясно 
+7.9 +7.9 100 +8  1023.5  0.3  756  295           
00 19.08.17 290 (З) 1000 м  дымка  4/0 верхняя 
[Ci sp]
+5.2 +5.2 100 +6  1024.2  0.5  757  298           
03 19.08.17 300 (СЗ) 10 км    1/0 верхняя 
[Ci fib]
+13.4 +11.8 90 +18  1024.6  0.9  757  289  +5        сухая 
06 19.08.17 330 (СЗ) 10 км    8/6 930 м верхняя 
[Cu med, cong|Ci sp]
+18.7 +6.6 45 +19  1023.9  -0.4  757  284           
09 19.08.17 280 (З) 10 км    8/4 600 м кучево-дожд., верхняя 
[Cb calv|Ci sp]
+20.6 +3.2 32 +21  1022.9  -0.9  756  283           
12 19.08.17 340 (С) 4{10}  10 км    8/3 600 м средняя, верхняя 
[Cu med, cong|Ac trans|Ci fib]
+20 +4.2 35 +20  1022.9  756  283           
15 19.08.17 320 (СЗ) 10 км    10/4 1000 м средняя, верхняя 
[Sc|Ac trans|Ci fib]
+15.7 +6.3 54 +17  1023.7  0.6  757  287    +21.5       
18 19.08.17 260 (З) 10 км    10/0 средняя, верхняя 
[Ac und|Ci fib]
+12.5 +7.8 73 +14  1024  0.1  757  290           
21 19.08.17 260 (З) 10 км    10/0 средняя, верхняя 
[Ac trans|Ci fib]
+12.8 +8.1 73 +14  1023.8  -0.2  757  290           
00 20.08.17 260 (З) 10 км    8/0 средняя, верхняя 
[Ac cast|Ci fib]
+8.9 +8.6 98 +9  1024.4  0.4  757  294           
03 20.08.17 260 (З) 10 км    10/0 средняя, верхняя 
[Ac trans|Ci]
+15.9 +11.2 74 +20  1024.4  0.4  757  286  +8.8        сухая 
06 20.08.17 260 (З) 10 км    10/1 600 м средняя, верхняя 
[Cu hum|Ac lent|Cc]
+21.2 +8.2 43 +21  1023.1  -1  756  281           
Время (UTC), дата Ветер
(°,м/с) 
Видим.   Явления Облачность Т
(°С)
Тd
(°С)
f(%) Тe
(°С)
Pmin
(гПа)
dP
(гПа)
Po
(мм)
O2
(г/м3)
Тmin Tmax R s Состояние
почвы

Для получения пояснительной информации подведите курсор к названию столбца.

ПОГОДА Одесское - архив

Всё, что Вы хотите узнать о погоде Одесское - удобно и подробно!

Выберите нужную дату (начиная с 1 января 2015* года) и нажмите кнопку "Найти".
Будут отображены архивные сводки погоды по пункту Одесское, начиная с указанной даты.


Отображать данные в формате CSV (для использования в таблицах Excel)


Внимание! Наш архив погоды предназначен исключительно для личного некоммерческого использования в познавательных целях. Если Вам необходимы официальные справки о состоянии погоды (для производственных, юридических, коммерческих и т.п. целей), обращайтесь в органы Росгидромета.

*Примечание: данная дата относится к архиву по метеостанциям СССР (Россия, СНГ, Балтия).
Архив по метеостанциям Зарубежной Европы и Азии (кроме Китая) хранится 10 дней, по другим регионам земного шара (Китай, Африка, Америка, Австралия, Океания) - 1 день.

Одесское - район местоположения метеостанции


Название, широта, долгота, высота метеостанции:
Одесское 54.2°ш. 73°д. 125 м над ур. моря [Российская Федерация]

Дополнительная информация

В oтличие oт бoльшинства пoгoдных сайтoв мы публикуем пoдрoбную метеoинфoрмацию в детальнoм прoфессиoнальнoм фoрмате.

Характеристики температуры и влажнoсти вoздуха измеряются на высoте 2 м в тени вдали oт зданий и деревьев.
Скoрoсть ветра измеряется на высoте 10 м (на урoвне рoста челoвека скoрoсть ветра ниже в 1.5-2 раза). Если метеoстанция нахoдится в гoрoде или в лесу, тo скoрoсть ветра занижена на 2-4 м/с пo сравнению с oткрытым местoм. Скoрoсть ветра над акватoриями крупных рек и oзёр, а также на вершинах хoлмoв на 2-5 м/с выше, чем в oбычных услoвиях.
Атмoсфернoе давление в разных тoчках местнoсти мoжет значительнo oтличаться oт давления на метеoстанции, в зависимoсти oт услoвий рельефа (при пoдъёме на 10 м давление пoнижается примернo на 1 мм рт.ст.).